TimePDT,TemperatureF,Dew PointF,Humidity,Sea Level PressureIn,VisibilityMPH,Wind Direction,Wind SpeedMPH,Gust SpeedMPH,PrecipitationIn,Events,Conditions,WindDirDegrees,DateUTC
12:53 AM,54.0,42.1,64,29.87,8.0,ENE,3.5,-,N/A,,Clear,70,2013-10-08 07:53:00
1:53 AM,54.0,41.0,62,29.88,8.0,East,3.5,-,N/A,,Clear,80,2013-10-08 08:53:00
2:53 AM,51.1,39.0,63,29.87,8.0,Calm,Calm,-,N/A,,Clear,0,2013-10-08 09:53:00
3:53 AM,50.0,41.0,71,29.86,7.0,SSW,3.5,-,N/A,,Clear,210,2013-10-08 10:53:00
4:53 AM,50.0,39.0,66,29.85,7.0,Calm,Calm,-,N/A,,Clear,0,2013-10-08 11:53:00
5:53 AM,46.9,39.9,77,29.85,8.0,Calm,Calm,-,N/A,,Clear,0,2013-10-08 12:53:00
6:53 AM,46.9,39.9,77,29.86,6.0,Calm,Calm,-,N/A,,Haze,0,2013-10-08 13:53:00
7:53 AM,50.0,39.9,68,29.88,5.0,Calm,Calm,-,N/A,,Haze,0,2013-10-08 14:53:00
8:53 AM,57.9,41.0,53,29.88,8.0,NW,5.8,-,N/A,,Clear,310,2013-10-08 15:53:00
9:53 AM,63.0,37.9,40,29.88,8.0,WNW,8.1,-,N/A,,Clear,300,2013-10-08 16:53:00
10:53 AM,69.1,37.9,32,29.87,7.0,NNW,8.1,-,N/A,,Clear,330,2013-10-08 17:53:00
11:53 AM,73.9,39.9,29,29.86,6.0,NNW,9.2,-,N/A,,Haze,330,2013-10-08 18:53:00
12:53 PM,78.1,37.9,24,29.83,6.0,NW,9.2,-,N/A,,Haze,310,2013-10-08 19:53:00
1:36 PM,80.6,37.4,21,29.80,1.8,NNW,6.9,-,N/A,,Haze,340,2013-10-08 20:36:00
1:44 PM,80.6,35.6,20,29.79,4.0,North,6.9,-,N/A,,Haze,350,2013-10-08 20:44:00
1:53 PM,80.1,36.0,20,29.79,7.0,North,4.6,-,N/A,,Partly Cloudy,350,2013-10-08 20:53:00
2:53 PM,82.0,32.0,16,29.77,10.0,NW,6.9,-,N/A,,Clear,310,2013-10-08 21:53:00
3:53 PM,82.9,30.9,15,29.75,10.0,NW,6.9,-,N/A,,Clear,310,2013-10-08 22:53:00
4:53 PM,80.1,34.0,19,29.73,10.0,NW,8.1,-,N/A,,Clear,320,2013-10-08 23:53:00
5:53 PM,78.1,35.1,21,29.72,10.0,NNW,9.2,-,N/A,,Clear,340,2013-10-09 00:53:00
6:53 PM,73.9,39.0,28,29.72,10.0,NW,9.2,-,N/A,,Clear,320,2013-10-09 01:53:00
7:53 PM,72.0,39.9,31,29.71,10.0,WNW,6.9,-,N/A,,Clear,300,2013-10-09 02:53:00
8:53 PM,68.0,41.0,37,29.70,10.0,NW,6.9,-,N/A,,Clear,320,2013-10-09 03:53:00
9:53 PM,64.9,41.0,42,29.70,10.0,WNW,5.8,-,N/A,,Clear,300,2013-10-09 04:53:00
10:53 PM,64.0,41.0,43,29.70,10.0,WNW,6.9,-,N/A,,Clear,300,2013-10-09 05:53:00
11:53 PM,62.1,41.0,46,29.68,10.0,Calm,Calm,-,N/A,,Clear,0,2013-10-09 06:53:00